Satellite: NOAA-14
Catalog number: 23455
Epoch time: 08248.03564304
Element set: 292
Inclination: 098.9408 deg
RA of node: 320.3017 deg
Eccentricity: 0.0008521
Arg of perigee: 281.6994 deg
Mean anomaly: 078.3189 deg
Mean motion: 14.13748802 rev/day
Decay rate: 2.67e-06 rev/day^2
Epoch rev: 70549
Checksum: 317
Satellite: NOAA-15
Catalog number: 25338
Epoch time: 08248.01432580
Element set: 609
Inclination: 098.5602 deg
RA of node: 237.8924 deg
Eccentricity: 0.0010861
Arg of perigee: 166.5633 deg
Mean anomaly: 193.5867 deg
Mean motion: 14.24723612 rev/day
Decay rate: 1.62e-06 rev/day^2
Epoch rev: 53602
Checksum: 304
Satellite: RESURS
Catalog number: 25394
Epoch time: 08248.70972511
Element set: 14
Inclination: 098.3784 deg
RA of node: 289.0188 deg
Eccentricity: 0.0001662
Arg of perigee: 003.5919 deg
Mean anomaly: 356.5272 deg
Mean motion: 14.24169409 rev/day
Decay rate: 1.4e-07 rev/day^2
Epoch rev: 52776
Checksum: 311
Satellite: FENGYUN1
Catalog number: 25730
Epoch time: 08247.95154990
Element set: 0618
Inclination: 098.7262 deg
RA of node: 221.0853 deg
Eccentricity: 0.0020497
Arg of perigee: 309.4396 deg
Mean anomaly: 050.4959 deg
Mean motion: 14.07765128 rev/day
Decay rate: 1.17e-06 rev/day^2
Epoch rev: 48004
Checksum: 314
Satellite: OKEAN-0
Catalog number: 25860
Epoch time: 08247.47948538
Element set: 0462
Inclination: 097.7571 deg
RA of node: 234.5888 deg
Eccentricity: 0.0001721
Arg of perigee: 055.0720 deg
Mean anomaly: 305.0660 deg
Mean motion: 14.73534081 rev/day
Decay rate: -2.0e-08 rev/day^2
Epoch rev: 49092
Checksum: 301
Satellite: NOAA-16
Catalog number: 26536
Epoch time: 08248.04767338
Element set: 83
Inclination: 099.1622 deg
RA of node: 238.9764 deg
Eccentricity: 0.0010525
Arg of perigee: 009.8240 deg
Mean anomaly: 350.3180 deg
Mean motion: 14.12494543 rev/day
Decay rate: -1.9e-07 rev/day^2
Epoch rev: 40990
Checksum: 305
Satellite: NOAA-17
Catalog number: 27453
Epoch time: 08248.03034797
Element set: 78
Inclination: 098.5270 deg
RA of node: 310.3475 deg
Eccentricity: 0.0010926
Arg of perigee: 235.3552 deg
Mean anomaly: 124.6572 deg
Mean motion: 14.23998690 rev/day
Decay rate: -5.8e-07 rev/day^2
Epoch rev: 32202
Checksum: 308
Satellite: NOAA-18
Catalog number: 28654
Epoch time: 08248.03780883
Element set: 565
Inclination: 098.8709 deg
RA of node: 188.0109 deg
Eccentricity: 0.0015373
Arg of perigee: 091.0056 deg
Mean anomaly: 269.2918 deg
Mean motion: 14.11190699 rev/day
Decay rate: 4.18e-06 rev/day^2
Epoch rev: 16959
Checksum: 348
/EX
SB KEPS @ AMSAT $ORB08248.M
Orbital Elements 08248.MISC
HR AMSAT ORBITAL ELEMENTS FOR MANNED AND MISCELLANEOUS SATELLITES
FROM WA5QGD FORT WORTH,TX September 4, 2008
Send Subscribe/unsubscribe to KEPS at
http://www.amsat.org/mailman/listinfo/keps
BID: ORB08248.M
TO ALL RADIO AMATEURS BT
Satellite: HUBBLE
Catalog number: 20580
Epoch time: 08248.89964023
Element set: 214
Inclination: 028.4674 deg
RA of node: 163.3076 deg
Eccentricity: 0.0003900
Arg of perigee: 151.7280 deg
Mean anomaly: 208.3519 deg
Mean motion: 15.00403578 rev/day
Decay rate: 2.44e-06 rev/day^2
Epoch rev: 80696
Checksum: 287
Satellite: PO-34
Catalog number: 25520
Epoch time: 08247.67098725
Element set: 0081
Inclination: 028.4591 deg
RA of node: 013.3168 deg
Eccentricity: 0.0005096
Arg of perigee: 065.0637 deg
Mean anomaly: 295.0483 deg
Mean motion: 15.17223509 rev/day
Decay rate: 3.20e-06 rev/day^2
Epoch rev: 54509
Checksum: 297
Satellite: ISS
Catalog number: 25544
Epoch time: 08248.50206378
Element set: 188
Inclination: 051.6444 deg
RA of node: 329.4627 deg
Eccentricity: 0.0006906
Arg of perigee: 080.0465 deg
Mean anomaly: 036.0927 deg
Mean motion: 15.71905787 rev/day
Decay rate: 8.290e-05 rev/day^2
Epoch rev: 56101
Checksum: 308
Satellite: CO-58
Catalog number: 28895
Epoch time: 08248.43127026
Element set: 111
Inclination: 098.0884 deg
RA of node: 140.5296 deg
Eccentricity: 0.0018271
Arg of perigee: 158.1570 deg
Mean anomaly: 202.0434 deg
Mean motion: 14.59693688 rev/day
Decay rate: 1.86e-06 rev/day^2
Epoch rev: 15204
Checksum: 316
Satellite: FALCON
Catalog number: 30776
Epoch time: 08247.82487636
Element set: 389
Inclination: 035.4342 deg
RA of node: 036.5543 deg
Eccentricity: 0.0002129
Arg of perigee: 315.2080 deg
Mean anomaly: 044.8463 deg
Mean motion: 15.03043045 rev/day
Decay rate: 1.94e-06 rev/day^2
Epoch rev: 8198
Checksum: 291
Satellite: MAST
Catalog number: 31126
Epoch time: 08247.58511346
Element set: 411
Inclination: 098.0320 deg
RA of node: 308.8601 deg
Eccentricity: 0.0096045
Arg of perigee: 089.2234 deg
Mean anomaly: 272.0017 deg
Mean motion: 14.53443258 rev/day
Decay rate: 8.3e-07 rev/day^2
Epoch rev: 7340
Checksum: 266
Satellite: CAPE1
Catalog number: 31130
Epoch time: 08247.89014983
Element set: 0406
Inclination: 098.0340 deg
RA of node: 307.9828 deg
Eccentricity: 0.0104086
Arg of perigee: 091.4943 deg
Mean anomaly: 269.8149 deg
Mean motion: 14.51988341 rev/day
Decay rate: 3.1e-07 rev/day^2
Epoch rev: 07314
Checksum: 304
Satellite: COMPASS
Catalog number: 32787
Epoch time: 08247.46769824
Element set: 0139
Inclination: 097.9829 deg
RA of node: 307.1107 deg
Eccentricity: 0.0014870
Arg of perigee: 243.1087 deg
Mean anomaly: 116.8605 deg
Mean motion: 14.81454013 rev/day
Decay rate: 2.17e-06 rev/day^2
Epoch rev: 01899
Checksum: 319
Satellite: AAUSAT2
Catalog number: 32788
Epoch time: 08247.93103919
Element set: 0145
Inclination: 097.9829 deg
RA of node: 307.5896 deg
Eccentricity: 0.0013970
Arg of perigee: 239.3718 deg
Mean anomaly: 120.6119 deg
Mean motion: 14.81564107 rev/day
Decay rate: 2.6e-07 rev/day^2
Epoch rev: 01906
Checksum: 322
Satellite: DO-64
Catalog number: 32789
Epoch time: 08248.81943163
Element set: 148
Inclination: 097.9858 deg
RA of node: 308.5049 deg
Eccentricity: 0.0014662
Arg of perigee: 236.4933 deg
Mean anomaly: 123.4876 deg
Mean motion: 14.81463688 rev/day
Decay rate: 4.61e-06 rev/day^2
Epoch rev: 1919
Checksum: 354
Satellite: CO-66
Catalog number: 32791
Epoch time: 08247.41237920
Element set: 0134
Inclination: 097.9852 deg
RA of node: 307.0731 deg
Eccentricity: 0.0014983
Arg of perigee: 240.1672 deg
Mean anomaly: 119.8059 deg
Mean motion: 14.81309830 rev/day
Decay rate: 3.82e-06 rev/day^2
Epoch rev: 01895
Checksum: 315
Satellite: RS-30
Catalog number: 32953
Epoch time: 08247.56568081
Element set: 0099
Inclination: 082.4965 deg
RA of node: 074.8448 deg
Eccentricity: 0.0019887
Arg of perigee: 083.3966 deg
Mean anomaly: 276.9395 deg
Mean motion: 12.42997232 rev/day
Decay rate: 1.0e-07 rev/day^2
Epoch rev: 01278
Checksum: 352
/EX
More information about the Keps
mailing list